Tracking 35274 objects as of 11-Sep-2026
HD Live streaming from Space Station
objects crossing your sky now

COSMOS 2588

Track COSMOS 2588 now!
10-day predictions


NORAD ID: 64095
Int'l Code: 2025-109A
Launch date: May 23, 2025
Source: Commonwealth of Independent States (former USSR) (CIS)
Launch site: PLESETSK MISSILE AND SPACE COMPLEX (PKMTR)
Your satellite tracking list
Your tracking list is empty




NASA's NSSDC Master Catalog

Two Line Element Set (TLE):
1 64095U 25109A   26253.71240762  .00006056  00000-0  22147-3 0  9994
2 64095  72.9736  15.1010 0009359 233.3517 126.6818 15.28332206 72685
Source of the keplerian elements: AFSPC